Location: Hall+in+Tirol
(47.2830°N, 11.5170°E)
Time: 06:55:56
(UTC+02:00)

Amateur Radio Satellites - All Passes

Search period start: 06 July 2015 06:25
Search period end: 07 July 2015 06:25
Location: Hall+in+Tirol, 47.2830°N, 11.5170°E

Satellite Date Start Highest point End Downlink Frequencies (MHz)
Time Altitude Azimuth
PRISM 06 Jul 06:43:06 06:46:56 37° 69° (ENE) 06:50:50 437.425
BEESAT 3 06 Jul 06:50:00 06:52:51 19° 114° (ESE) 06:55:49 437.485
CUTE-I 06 Jul 06:57:09 07:01:53 32° 94° (E) 07:06:39 437.470
HORYU 2 06 Jul 07:00:55 07:02:47 12° 302° (WNW) 07:04:29 437.375
STRAND 1 06 Jul 07:01:27 07:06:31 64° 72° (ENE) 07:11:40 437.568
BEESAT 2 06 Jul 07:04:09 07:07:12 21° 115° (ESE) 07:10:22 435.950
CUBESAT XI-V 06 Jul 07:08:20 07:12:52 45° 263° (W) 07:17:25 437.345
CUSAT 1 06 Jul 07:08:21 07:11:54 17° 93° (E) 07:15:09 437.405
O/OREOS (USA 219) 06 Jul 07:12:41 07:16:22 26° 105° (ESE) 07:20:08 437.305
ISS 06 Jul 07:29:42 07:30:55 12° 135° (SE) 07:32:13 145.825
Cubesat XI-IV 06 Jul 07:31:30 07:36:50 62° 101° (E) 07:42:09 437.490
M-CUBED/EXP-1 PRIME 06 Jul 07:45:40 07:48:09 20° 59° (ENE) 07:50:48 437.505
VERMONT LUNAR 06 Jul 07:46:03 07:47:32 13° 160° (SSE) 07:49:03 437.305
AO-7 06 Jul 07:47:33 07:54:04 26° 311° (NW) 08:00:23 29.400- 29.500
PRISM 06 Jul 08:19:06 08:22:30 23° 267° (W) 08:25:51 437.425
DANDE 06 Jul 08:20:11 08:26:52 55° 98° (E) 08:31:58 436.750
Cosmos 2504 06 Jul 08:20:21 08:25:37 22° 300° (WNW) 08:30:43 435.465 / 435.565
GONETS M04 06 Jul 08:24:44 08:31:51 30° 82° (E) 08:39:10
BEESAT 3 06 Jul 08:26:27 08:30:28 54° 312° (NW) 08:34:31 437.485
HO-68 06 Jul 08:28:54 08:33:08 17° 85° (E) 08:37:43 435.675
RS-15 06 Jul 08:30:37 08:40:47 36° 15° (NNE) 08:51:27 29.354- 29.394
AIST 2 06 Jul 08:32:04 08:36:03 41° 120° (ESE) 08:40:06 435.215
CUTE-I 06 Jul 08:37:04 08:42:05 41° 293° (WNW) 08:47:03 437.470
BEESAT 2 06 Jul 08:40:58 08:44:59 50° 312° (NW) 08:49:02 435.950
STRAND 1 06 Jul 08:42:33 08:46:15 19° 271° (W) 08:49:48 437.568
AUBIESAT-1 06 Jul 08:43:25 08:46:46 78° 70° (ENE) 08:50:19 437.475
CUSAT 1 06 Jul 08:48:22 08:54:25 67° 282° (WNW) 08:58:57 437.405
O/OREOS (USA 219) 06 Jul 08:51:29 08:55:40 38° 303° (WNW) 08:59:51 437.305
GOMX 1 06 Jul 08:52:28 08:56:00 26° 93° (E) 08:59:30 467.674
COMPASS 1 06 Jul 09:02:20 09:04:10 13° 87° (E) 09:06:11 437.405
ISS 06 Jul 09:03:36 09:06:49 67° 151° (SSE) 09:10:04 145.825
Cubesat XI-IV 06 Jul 09:12:22 09:16:34 23° 300° (WNW) 09:20:37 437.490
CUTE 1.7 + AOD 2 06 Jul 09:16:21 09:19:59 27° 94° (E) 09:23:40 437.475
CANX-2 06 Jul 09:19:49 09:23:40 32° 95° (E) 09:27:33 2200.000
M-CUBED/EXP-1 PRIME 06 Jul 09:19:51 09:22:51 31° 258° (WSW) 09:25:59 437.505
VERMONT LUNAR 06 Jul 09:21:17 09:23:50 23° 176° (S) 09:26:23 437.305
BRITE-PL 06 Jul 09:25:01 09:29:24 86° 283° (WNW) 09:33:34 437.365/2234.400
DOVE 4 06 Jul 09:28:22 09:32:15 38° 97° (E) 09:36:10 437.250
Cosmos 2499 06 Jul 09:29:17 09:31:20 12° 75° (ENE) 09:33:51 435.465 / 435.565
UNISAT 6 06 Jul 09:32:51 09:35:09 15° 61° (ENE) 09:37:37 437.425
UWE-3 06 Jul 09:51:32 09:53:26 13° 88° (E) 09:55:33 435.000/436.395/437.385
QB50P1 06 Jul 09:59:53 10:01:31 12° 60° (ENE) 10:03:20 145.935-145.965
SEEDS 06 Jul 10:01:37 10:05:52 65° 101° (E) 10:10:06 437.485
CINEMA 3 06 Jul 10:01:50 10:05:46 40° 98° (E) 10:09:47 145.822/145.860
PHONESAT 2.4 06 Jul 10:02:35 10:05:12 20° 166° (SSE) 10:07:50 2401.200-2431.200
DANDE 06 Jul 10:04:47 10:10:09 26° 290° (WNW) 10:14:23 436.750
BEESAT 3 06 Jul 10:07:18 10:09:20 13° 333° (NNW) 10:11:18 437.485
AAUSAT CUBESAT 2 06 Jul 10:08:33 10:12:41 52° 99° (E) 10:16:49 437.432
AIST 2 06 Jul 10:10:54 10:14:44 30° 319° (NW) 10:18:33 435.215
NANOSAT C BR1 06 Jul 10:12:26 10:14:57 16° 62° (ENE) 10:17:35 145.865
DELFI C3 06 Jul 10:13:20 10:16:17 19° 91° (E) 10:19:19 145.870
HO-68 06 Jul 10:14:53 10:22:05 83° 106° (ESE) 10:29:16 435.675
ANTELSAT 06 Jul 10:15:33 10:19:27 36° 69° (ENE) 10:23:22 437.575/2403.000
DUCHIFAT 1 06 Jul 10:18:29 10:21:15 18° 63° (ENE) 10:24:07 145.980
GONETS M04 06 Jul 10:19:21 10:28:07 69° 283° (WNW) 10:36:51
BEESAT 2 06 Jul 10:22:07 10:24:01 13° 334° (NNW) 10:25:52 435.950
POLYITAN 1 06 Jul 10:25:18 10:28:28 21° 64° (ENE) 10:31:43 437.675
TIGRISAT 06 Jul 10:26:57 10:31:00 45° 71° (ENE) 10:35:05 435.000
BUGSAT 1 06 Jul 10:28:18 10:30:42 15° 62° (ENE) 10:33:15 437.445
GOMX 1 06 Jul 10:30:28 10:34:14 31° 292° (WNW) 10:37:51 467.674
ZACube-1 06 Jul 10:33:59 10:37:36 27° 94° (E) 10:41:20 437.345
COMPASS 1 06 Jul 10:36:08 10:40:22 69° 286° (WNW) 10:44:34 437.405
Oscar 11 06 Jul 10:38:43 10:42:59 50° 99° (E) 10:47:13 145.826/435.025
CUBEBUG 2 06 Jul 10:38:50 10:42:56 48° 99° (E) 10:47:06 437.445
UKube-1 06 Jul 10:39:31 10:39:36 10° 85° (E) 10:39:58 .
HUMSAT D 06 Jul 10:39:56 10:42:10 14° 88° (E) 10:44:34 437.325/437.525
ISS 06 Jul 10:40:16 10:43:22 40° 351° (N) 10:46:28 145.825
RS-15 06 Jul 10:44:09 10:55:44 69° 46° (NE) 11:07:50 29.354- 29.394
CUTE 1.7 + AOD 2 06 Jul 10:52:04 10:55:57 33° 291° (WNW) 10:59:46 437.475
QB50P2 06 Jul 10:53:48 10:57:45 39° 69° (ENE) 11:01:44 145.880/145.840
POPSAT HIP 1 06 Jul 10:54:06 10:58:02 38° 69° (ENE) 11:01:59 437.405
CANX-2 06 Jul 10:55:50 10:59:32 28° 293° (WNW) 11:03:11 2200.000
VERMONT LUNAR 06 Jul 10:57:54 11:00:12 19° 192° (SSW) 11:02:30 437.305
AISAT 06 Jul 11:04:18 11:06:04 12° 87° (E) 11:08:03 437.250
BRITE-PL 06 Jul 11:06:06 11:07:14 11° 303° (WNW) 11:08:08 437.365/2234.400
DOVE 4 06 Jul 11:06:38 11:09:53 22° 295° (WNW) 11:13:03 437.250
UNISAT 6 06 Jul 11:07:14 11:11:29 68° 258° (WSW) 11:15:45 437.425
FUNcube-1 06 Jul 11:09:01 11:13:12 62° 101° (E) 11:17:28 145.935
Cosmos 2499 06 Jul 11:16:10 11:23:07 68° 95° (E) 11:30:17 435.465 / 435.565
UWE-3 06 Jul 11:26:17 11:30:29 68° 286° (WNW) 11:34:45 435.000/436.395/437.385
QB50P1 06 Jul 11:32:34 11:36:49 84° 256° (WSW) 11:41:05 145.935-145.965
SEEDS 06 Jul 11:38:38 11:41:13 15° 298° (WNW) 11:43:40 437.485
CINEMA 3 06 Jul 11:39:34 11:42:49 22° 294° (WNW) 11:45:59 145.822/145.860
PHONESAT 2.4 06 Jul 11:39:45 11:42:40 26° 183° (S) 11:45:37 2401.200-2431.200
ESTCUBE 1 06 Jul 11:41:26 11:44:47 20° 91° (E) 11:48:12 437.505/2401.250
50 SAT 06 Jul 11:42:21 11:45:52 32° 96° (E) 11:49:26 437.505
AAUSAT CUBESAT 2 06 Jul 11:45:02 11:47:57 18° 296° (WNW) 11:50:45 437.432
NANOSAT C BR1 06 Jul 11:46:10 11:50:22 62° 259° (W) 11:54:34 145.865
DELFI C3 06 Jul 11:47:43 11:51:34 41° 289° (WNW) 11:55:24 145.870
VELOX 1 06 Jul 11:51:20 11:55:23 35° 96° (E) 11:59:26 145.980
DUCHIFAT 1 06 Jul 11:52:33 11:56:42 54° 260° (W) 12:00:52 145.980
ANTELSAT 06 Jul 11:52:50 11:56:22 24° 267° (W) 11:59:49 437.575/2403.000
DX 1 06 Jul 11:53:54 11:58:15 65° 102° (ESE) 12:02:33 434.975-435.025
POLYITAN 1 06 Jul 12:00:05 12:04:09 43° 262° (W) 12:08:11 437.675
BUGSAT 1 06 Jul 12:01:34 12:05:46 63° 258° (WSW) 12:09:56 437.445
Oscar 19 06 Jul 12:01:36 12:03:45 13° 55° (NE) 12:06:07 437.125/150
HO-68 06 Jul 12:03:34 12:09:08 25° 306° (NW) 12:14:33 435.675
TIGRISAT 06 Jul 12:04:54 12:08:02 19° 269° (W) 12:11:03 435.000
ZACube-1 06 Jul 12:10:15 12:13:59 31° 292° (WNW) 12:17:46 437.345
UKube-1 06 Jul 12:12:07 12:16:29 89° 285° (WNW) 12:20:48 .
SPROUT 06 Jul 12:12:58 12:13:30 10° 85° (E) 12:14:16 437.525
HUMSAT D 06 Jul 12:14:13 12:18:20 59° 287° (WNW) 12:22:27 437.325/437.525
Oscar 11 06 Jul 12:15:40 12:18:50 19° 297° (WNW) 12:21:54 145.826/435.025
CUBEBUG 2 06 Jul 12:16:20 12:19:21 19° 296° (WNW) 12:22:18 437.445
ISS 06 Jul 12:17:04 12:20:10 41° 10° (N) 12:23:17 145.825
GONETS M04 06 Jul 12:21:28 12:27:04 17° 309° (NW) 12:32:17
QB50P2 06 Jul 12:30:28 12:33:49 22° 268° (W) 12:37:05 145.880/145.840
POPSAT HIP 1 06 Jul 12:30:40 12:34:03 22° 267° (W) 12:37:22 437.405
AISAT 06 Jul 12:38:50 12:43:16 76° 286° (WNW) 12:47:39 437.250
TISAT 1 06 Jul 12:45:54 12:48:19 15° 89° (E) 12:50:52 437.305
FUNcube-1 06 Jul 12:46:32 12:49:09 16° 298° (WNW) 12:51:38 145.935
CUBEBUG 1 06 Jul 12:51:00 12:55:24 83° 103° (ESE) 12:59:44 437.445
RS-15 06 Jul 12:57:01 13:07:50 44° 249° (WSW) 13:18:48 29.354- 29.394
Cosmos 2499 06 Jul 13:11:18 13:17:04 25° 298° (WNW) 13:22:48 435.465 / 435.565
50 SAT 06 Jul 13:17:11 13:20:23 24° 293° (WNW) 13:23:31 437.505
AO-7 06 Jul 13:17:31 13:21:02 14° 36° (NE) 13:24:53 29.400- 29.500
ESTCUBE 1 06 Jul 13:17:33 13:21:57 48° 289° (WNW) 13:26:18 437.505/2401.250
PHONESAT 2.4 06 Jul 13:17:54 13:20:05 16° 199° (SSW) 13:22:15 2401.200-2431.200
VELOX 1 06 Jul 13:28:04 13:31:51 27° 294° (WNW) 13:35:31 145.980
BEESAT 3 06 Jul 13:28:49 13:29:03 10° 21° (NNE) 13:29:23 437.485
DX 1 06 Jul 13:31:19 13:34:03 16° 299° (WNW) 13:36:38 434.975-435.025
Oscar 19 06 Jul 13:37:14 13:42:21 76° 72° (ENE) 13:47:30 437.125/150
BEESAT 2 06 Jul 13:43:02 13:43:59 11° 22° (NNE) 13:45:01 435.950
SPROUT 06 Jul 13:45:59 13:50:17 85° 285° (WNW) 13:54:33 437.525
UKube-1 06 Jul 13:50:17 13:52:00 12° 302° (WNW) 13:53:31 .
YUBILEINY 06 Jul 13:52:48 14:00:51 40° 67° (ENE) 14:09:01 435.215
ITAMSAT 1 06 Jul 13:53:22 13:58:01 34° 65° (ENE) 14:02:45 435.822/435.867
ISS 06 Jul 13:53:29 13:56:42 63° 210° (SSW) 13:59:54 145.825
Gurwin Techsat 1B 06 Jul 13:57:50 14:02:41 38° 67° (ENE) 14:07:37 435.225
BEESAT 06 Jul 14:01:27 14:04:39 18° 89° (E) 14:07:59 436.000
SWISSCUBE 06 Jul 14:16:46 14:20:49 27° 93° (E) 14:24:55 437.505
AISAT 06 Jul 14:18:12 14:19:08 10° 303° (WNW) 14:19:50 437.250
TISAT 1 06 Jul 14:20:23 14:24:30 56° 288° (WNW) 14:28:34 437.305
Cosmos 2491 06 Jul 14:20:40 14:27:09 25° 80° (E) 14:33:56 435.465 / 435.565
ITUPSAT 1 06 Jul 14:22:58 14:27:05 28° 94° (E) 14:31:13 437.325
CUBEBUG 1 06 Jul 14:29:04 14:31:10 13° 301° (WNW) 14:33:06 437.445
JAS-2 06 Jul 14:29:43 14:33:39 22° 59° (ENE) 14:37:55 435.910
PCSat 06 Jul 14:40:13 14:42:22 13° 104° (ESE) 14:44:48 145.827
HORYU 2 06 Jul 14:48:58 14:51:41 17° 61° (ENE) 14:54:32 437.375
AO-7 06 Jul 15:04:08 15:11:50 44° 59° (ENE) 15:19:39 29.400- 29.500
BEESAT 3 06 Jul 15:04:27 15:08:13 34° 43° (NE) 15:11:57 437.485
AIST 2 06 Jul 15:13:00 15:15:38 16° 29° (NNE) 15:18:19 435.215
Oscar 19 06 Jul 15:19:13 15:22:22 16° 273° (W) 15:25:19 437.125/150
BEESAT 2 06 Jul 15:19:20 15:23:12 38° 44° (NE) 15:27:01 435.950
SPROUT 06 Jul 15:24:25 15:25:43 11° 302° (WNW) 15:26:51 437.525
AIST 1 06 Jul 15:30:28 15:34:23 32° 91° (E) 15:38:20
ISS 06 Jul 15:31:36 15:32:35 11° 226° (SW) 15:33:27 145.825
ITAMSAT 1 06 Jul 15:32:41 15:37:30 37° 264° (W) 15:42:21 435.822/435.867
STARS 06 Jul 15:32:58 15:35:34 16° 89° (E) 15:38:20 437.465
Gurwin Techsat 1B 06 Jul 15:37:57 15:42:44 33° 265° (W) 15:47:31 435.225
BEESAT 06 Jul 15:38:12 15:42:57 60° 288° (WNW) 15:47:40 436.000
O/OREOS (USA 219) 06 Jul 15:40:29 15:42:58 15° 44° (NE) 15:45:36 437.305
SO-50 06 Jul 15:46:42 15:48:03 11° 108° (ESE) 15:49:40 436.795
YUBILEINY 06 Jul 15:49:36 15:58:03 54° 270° (W) 16:06:27 435.215
SWISSCUBE 06 Jul 15:54:18 15:58:49 40° 292° (WNW) 16:03:17 437.505
ITUPSAT 1 06 Jul 16:00:35 16:05:05 39° 292° (WNW) 16:09:32 437.325
Cosmos 2504 06 Jul 16:07:05 16:13:29 31° 66° (ENE) 16:20:24 435.465 / 435.565
JAS-2 06 Jul 16:13:15 16:18:22 59° 260° (W) 16:23:50 435.910
Cosmos 2491 06 Jul 16:14:17 16:23:08 81° 280° (W) 16:32:01 435.465 / 435.565
PCSat 06 Jul 16:19:36 16:25:01 79° 122° (ESE) 16:30:29 145.827
KKS-1 06 Jul 16:20:55 16:25:22 75° 103° (ESE) 16:29:48 437.445
HORYU 2 06 Jul 16:23:30 16:27:53 64° 259° (WSW) 16:32:19 437.375
BEESAT 3 06 Jul 16:42:30 16:46:08 31° 242° (WSW) 16:49:39 437.485
CUTE-I 06 Jul 16:45:55 16:48:03 13° 54° (NE) 16:50:26 437.470
AIST 2 06 Jul 16:50:43 16:54:58 73° 51° (NE) 16:59:08 435.215
MOZHAYETS 4 06 Jul 16:52:56 16:56:23 21° 90° (E) 16:59:57
AO-7 06 Jul 16:56:28 17:04:35 52° 259° (W) 17:12:42 29.400- 29.500
BEESAT 2 06 Jul 16:57:37 17:01:10 28° 243° (WSW) 17:04:36 435.950
STARS 06 Jul 17:08:08 17:12:28 59° 288° (WNW) 17:16:46 437.465
AIST 1 06 Jul 17:08:17 17:12:05 27° 290° (WNW) 17:15:50
Cubesat XI-IV 06 Jul 17:18:26 17:22:28 23° 60° (ENE) 17:26:39 437.490
O/OREOS (USA 219) 06 Jul 17:18:36 17:23:09 88° 63° (ENE) 17:27:42 437.305
SO-50 06 Jul 17:23:04 17:27:49 77° 125° (SE) 17:32:45 436.795
YUBILEINY 06 Jul 17:51:20 17:52:59 10° 290° (WNW) 17:53:58 435.215
Cosmos 2504 06 Jul 17:58:50 18:06:12 63° 266° (W) 18:14:05 435.465 / 435.565
KKS-1 06 Jul 17:58:59 18:01:29 15° 300° (WNW) 18:03:51 437.445
PCSat 06 Jul 18:04:40 18:09:05 24° 323° (NW) 18:13:27 145.827
Cosmos 2491 06 Jul 18:15:15 18:21:44 21° 306° (NW) 18:27:52 435.465 / 435.565
CUTE-I 06 Jul 18:21:57 18:27:16 69° 73° (ENE) 18:32:39 437.470
MOZHAYETS 4 06 Jul 18:29:25 18:33:55 49° 289° (WNW) 18:38:24
GONETS M04 06 Jul 18:30:03 18:35:32 18° 52° (NE) 18:41:21
AIST 2 06 Jul 18:30:41 18:33:02 14° 249° (WSW) 18:35:13 435.215
Cubesat XI-IV 06 Jul 18:56:52 19:02:11 63° 258° (WSW) 19:07:33 437.490
DANDE 06 Jul 18:59:17 19:01:49 27° 71° (ENE) 19:04:09 436.750
O/OREOS (USA 219) 06 Jul 19:00:34 19:01:57 11° 262° (W) 19:03:05 437.305
BRITE-PL 06 Jul 19:01:10 19:05:09 23° 64° (ENE) 19:09:03 437.365/2234.400
HO-68 06 Jul 19:01:35 19:06:31 21° 52° (NE) 19:11:40 435.675
CUBESAT XI-V 06 Jul 19:01:48 19:06:08 36° 96° (E) 19:10:26 437.345
SO-50 06 Jul 19:04:56 19:08:56 24° 327° (NNW) 19:12:57 436.795
STRAND 1 06 Jul 19:09:57 19:13:09 17° 88° (E) 19:16:32 437.568
CUSAT 1 06 Jul 19:22:56 19:25:35 62° 261° (W) 19:28:09 437.405
Cosmos 2504 06 Jul 19:54:23 19:57:11 12° 285° (WNW) 19:59:28 435.465 / 435.565
COMPASS 1 06 Jul 19:56:53 19:59:03 14° 61° (ENE) 20:01:23 437.405
PRISM 06 Jul 19:57:18 20:01:15 38° 98° (E) 20:05:10 437.425
GOMX 1 06 Jul 20:02:54 20:07:41 46° 71° (ENE) 20:12:11 467.674
CUTE-I 06 Jul 20:04:10 20:07:57 19° 271° (W) 20:11:34 437.470
CUTE 1.7 + AOD 2 06 Jul 20:12:18 20:15:55 29° 67° (ENE) 20:19:36 437.475
CANX-2 06 Jul 20:15:47 20:19:35 34° 69° (ENE) 20:23:27 2200.000
GONETS M04 06 Jul 20:25:38 20:34:22 73° 78° (ENE) 20:43:03
DOVE 4 06 Jul 20:36:34 20:41:15 60° 73° (ENE) 20:45:41 437.250
BRITE-PL 06 Jul 20:38:04 20:43:23 58° 260° (W) 20:48:21 437.365/2234.400
CUBESAT XI-V 06 Jul 20:39:24 20:43:28 29° 294° (WNW) 20:47:27 437.345
HO-68 06 Jul 20:46:14 20:53:23 84° 72° (ENE) 21:00:35 435.675
STRAND 1 06 Jul 20:47:49 20:52:58 71° 288° (WNW) 20:58:05 437.568
SO-50 06 Jul 20:49:41 20:51:14 11° 351° (N) 20:52:43 436.795
UWE-3 06 Jul 20:51:53 20:54:30 17° 63° (ENE) 20:57:12 435.000/436.395/437.385
SEEDS 06 Jul 20:56:28 21:00:36 66° 74° (ENE) 21:04:48 437.485
M-CUBED/EXP-1 PRIME 06 Jul 20:57:57 20:59:39 12° 94° (E) 21:01:36 437.505
AAUSAT CUBESAT 2 06 Jul 21:02:08 21:06:09 52° 72° (ENE) 21:10:14 437.432
Cosmos 2499 06 Jul 21:02:13 21:08:58 31° 65° (ENE) 21:16:16 435.465 / 435.565
DELFI C3 06 Jul 21:03:53 21:06:43 19° 64° (ENE) 21:09:39 145.870
CINEMA 3 06 Jul 21:06:30 21:10:50 55° 73° (ENE) 21:15:01 145.822/145.860
DX 1 06 Jul 21:19:39 21:21:03 12° 58° (ENE) 21:22:38 434.975-435.025
COMPASS 1 06 Jul 21:30:06 21:34:15 68° 259° (W) 21:38:26 437.405
PRISM 06 Jul 21:33:07 21:36:30 23° 295° (WNW) 21:39:47 437.425
ZACube-1 06 Jul 21:33:08 21:36:50 32° 69° (ENE) 21:40:34 437.345
HUMSAT D 06 Jul 21:35:04 21:37:32 16° 63° (ENE) 21:40:08 437.325/437.525
UKube-1 06 Jul 21:36:01 21:38:26 15° 60° (ENE) 21:40:59 .
Oscar 11 06 Jul 21:36:21 21:40:34 58° 73° (ENE) 21:44:49 145.826/435.025
PCSat 06 Jul 21:39:35 21:40:41 11° 14° (NNE) 21:41:51 145.827
CUBEBUG 2 06 Jul 21:40:07 21:44:18 60° 73° (ENE) 21:48:25 437.445
GOMX 1 06 Jul 21:41:54 21:46:00 24° 267° (W) 21:49:50 467.674
CUTE 1.7 + AOD 2 06 Jul 21:48:04 21:51:48 30° 265° (W) 21:55:32 437.475
CANX-2 06 Jul 21:52:04 21:55:36 25° 267° (W) 21:59:05 2200.000
AUBIESAT-1 06 Jul 21:54:21 21:58:20 38° 103° (ESE) 22:02:35 437.475
AISAT 06 Jul 22:04:39 22:07:40 19° 62° (ENE) 22:10:48 437.250
FUNcube-1 06 Jul 22:07:45 22:11:55 71° 75° (ENE) 22:16:03 145.935
DOVE 4 06 Jul 22:16:13 22:19:24 17° 270° (W) 22:22:18 437.250
CUBEBUG 1 06 Jul 22:16:22 22:18:29 14° 60° (ENE) 22:20:46 437.445
GONETS M04 06 Jul 22:23:27 22:30:31 28° 279° (W) 22:37:19
UWE-3 06 Jul 22:26:32 22:30:41 55° 260° (W) 22:34:47 435.000/436.395/437.385
STRAND 1 06 Jul 22:29:12 22:31:22 12° 306° (NW) 22:33:19 437.568
50 SAT 06 Jul 22:29:35 22:32:51 28° 68° (ENE) 22:36:12 437.505
M-CUBED/EXP-1 PRIME 06 Jul 22:30:41 22:34:55 82° 290° (WNW) 22:39:28 437.505
SO-50 06 Jul 22:31:47 22:33:56 13° 15° (NNE) 22:36:08 436.795
SEEDS 06 Jul 22:34:52 22:36:56 13° 273° (W) 22:38:48 437.485
HO-68 06 Jul 22:36:49 22:42:05 21° 272° (W) 22:47:06 435.675
DELFI C3 06 Jul 22:37:41 22:41:32 43° 262° (W) 22:45:24 145.870
AAUSAT CUBESAT 2 06 Jul 22:39:28 22:42:08 16° 271° (W) 22:44:40 437.432
ESTCUBE 1 06 Jul 22:43:58 22:47:48 28° 66° (ENE) 22:51:43 437.505/2401.250
CINEMA 3 06 Jul 22:45:32 22:48:24 16° 270° (W) 22:51:04 145.822/145.860
VELOX 1 06 Jul 22:51:42 22:55:58 47° 70° (ENE) 23:00:16 145.980
DX 1 06 Jul 22:52:16 22:56:39 84° 75° (ENE) 23:01:04 434.975-435.025
Cosmos 2499 06 Jul 22:54:56 23:02:41 65° 266° (W) 23:10:59 435.465 / 435.565
UNISAT 6 06 Jul 22:56:24 22:59:34 20° 91° (E) 23:02:53 437.425
HUMSAT D 06 Jul 23:08:52 23:12:54 56° 260° (W) 23:16:56 437.325/437.525
SPROUT 06 Jul 23:09:31 23:11:39 14° 60° (ENE) 23:13:56 437.525
ZACube-1 06 Jul 23:09:43 23:13:15 26° 266° (W) 23:16:44 437.345
UKube-1 06 Jul 23:09:44 23:14:05 71° 258° (WSW) 23:18:26 .
Oscar 11 06 Jul 23:14:30 23:17:11 16° 272° (W) 23:19:44 145.826/435.025
QB50P1 06 Jul 23:16:17 23:18:03 13° 87° (E) 23:20:00 145.935-145.965
CUBEBUG 2 06 Jul 23:19:03 23:21:27 14° 272° (W) 23:23:39 437.445
PCSat 06 Jul 23:21:29 23:26:04 27° 39° (NE) 23:30:42 145.827
NANOSAT C BR1 06 Jul 23:28:50 23:31:31 17° 90° (E) 23:34:20 145.865
AUBIESAT-1 06 Jul 23:29:22 23:32:58 27° 298° (WNW) 23:36:40 437.475
DUCHIFAT 1 06 Jul 23:34:46 23:37:42 19° 91° (E) 23:40:46 145.980
AISAT 06 Jul 23:39:28 23:43:53 57° 259° (W) 23:48:17 437.250
ANTELSAT 06 Jul 23:40:13 23:44:32 52° 100° (E) 23:48:55 437.575/2403.000
TISAT 1 06 Jul 23:41:02 23:43:57 19° 63° (ENE) 23:46:59 437.305
BUGSAT 1 06 Jul 23:42:00 23:44:11 14° 89° (E) 23:46:31 437.445
POLYITAN 1 06 Jul 23:42:32 23:45:56 24° 93° (E) 23:49:23 437.675
FUNcube-1 06 Jul 23:47:09 23:48:49 12° 273° (W) 23:50:15 145.935
CUBEBUG 1 06 Jul 23:49:50 23:54:17 82° 258° (WSW) 23:58:44 437.445
TIGRISAT 06 Jul 23:51:29 23:55:51 66° 101° (ESE) 00:00:17 435.000
50 SAT 07 Jul 00:04:14 00:07:28 25° 266° (W) 00:10:41 437.505
M-CUBED/EXP-1 PRIME 07 Jul 00:07:27 00:09:14 12° 306° (NW) 00:10:53 437.505
QB50P2 07 Jul 00:11:25 00:15:30 47° 99° (E) 00:19:36 145.880/145.840
POPSAT HIP 1 07 Jul 00:11:32 00:15:36 46° 99° (E) 00:19:40 437.405
SO-50 07 Jul 00:11:33 00:16:00 32° 38° (NE) 00:20:27 436.795
ESTCUBE 1 07 Jul 00:20:21 00:24:35 36° 264° (W) 00:28:47 437.505/2401.250
Cosmos 2491 07 Jul 00:25:44 00:30:15 15° 48° (NE) 00:35:12 435.465 / 435.565
VELOX 1 07 Jul 00:29:24 00:32:47 20° 269° (W) 00:36:05 145.980
DX 1 07 Jul 00:32:13 00:33:36 11° 274° (W) 00:34:43 434.975-435.025
UNISAT 6 07 Jul 00:32:24 00:36:38 48° 289° (WNW) 00:40:55 437.425
SPROUT 07 Jul 00:42:54 00:47:13 75° 257° (WSW) 00:51:32 437.525
QB50P1 07 Jul 00:50:15 00:54:28 69° 286° (WNW) 00:58:38 145.935-145.965
Cosmos 2499 07 Jul 00:51:04 00:54:36 13° 284° (WNW) 00:57:40 435.465 / 435.565
NANOSAT C BR1 07 Jul 01:03:37 01:07:43 51° 288° (WNW) 01:11:46 145.865
PCSat 07 Jul 01:04:35 01:09:59 67° 241° (WSW) 01:15:21 145.827
DUCHIFAT 1 07 Jul 01:09:46 01:13:47 45° 290° (WNW) 01:17:46 145.980
BEESAT 07 Jul 01:10:41 01:14:47 30° 65° (ENE) 01:18:59 436.000
RS-15 07 Jul 01:14:35 01:22:46 27° 104° (ESE) 01:31:34 29.354- 29.394
TISAT 1 07 Jul 01:15:17 01:19:25 50° 261° (W) 01:23:33 437.305
BUGSAT 1 07 Jul 01:16:06 01:20:05 55° 288° (WNW) 01:24:01 437.445
ANTELSAT 07 Jul 01:17:49 01:21:00 19° 297° (WNW) 01:24:08 437.575/2403.000
POLYITAN 1 07 Jul 01:18:04 01:21:57 36° 291° (WNW) 01:25:47 437.675
SWISSCUBE 07 Jul 01:26:10 01:30:41 44° 69° (ENE) 01:35:16 437.505
TIGRISAT 07 Jul 01:29:28 01:32:11 16° 298° (WNW) 01:34:48 435.000
ITUPSAT 1 07 Jul 01:32:38 01:37:11 45° 69° (ENE) 01:41:48 437.325
AIST 1 07 Jul 01:35:34 01:37:21 12° 62° (ENE) 01:39:20
Oscar 19 07 Jul 01:46:19 01:50:05 21° 90° (E) 01:53:59 437.125/150
QB50P2 07 Jul 01:48:02 01:51:07 19° 296° (WNW) 01:54:06 145.880/145.840
POPSAT HIP 1 07 Jul 01:48:05 01:51:12 20° 296° (WNW) 01:54:13 437.405
KKS-1 07 Jul 01:48:11 01:50:18 14° 59° (ENE) 01:52:36 437.445
SO-50 07 Jul 01:51:58 01:56:49 52° 239° (WSW) 02:01:33 436.795
Gurwin Techsat 1B 07 Jul 02:13:01 02:14:26 11° 83° (E) 02:16:11 435.225
Cosmos 2491 07 Jul 02:20:53 02:29:32 61° 74° (ENE) 02:38:09 435.465 / 435.565
STARS 07 Jul 02:32:44 02:36:03 22° 64° (ENE) 02:39:29 437.465
BEESAT 07 Jul 02:48:06 02:52:33 37° 264° (W) 02:56:59 436.000
PCSat 07 Jul 02:51:47 02:52:31 10° 257° (WSW) 02:52:53 145.827
YUBILEINY 07 Jul 02:58:11 03:05:56 40° 86° (E) 03:13:50 435.215
SWISSCUBE 07 Jul 03:04:47 03:08:45 25° 267° (W) 03:12:39 437.505
AIST 1 07 Jul 03:11:19 03:15:42 77° 263° (W) 03:20:01
ITUPSAT 1 07 Jul 03:11:24 03:15:19 24° 268° (W) 03:19:09 437.325
JAS-2 07 Jul 03:18:00 03:22:28 19° 87° (E) 03:27:31 435.910
KKS-1 07 Jul 03:21:55 03:26:23 82° 256° (WSW) 03:30:51 437.445
RS-15 07 Jul 03:22:50 03:33:48 90° 106° (ESE) 03:45:13 29.354- 29.394
Oscar 19 07 Jul 03:24:50 03:29:53 57° 289° (WNW) 03:34:54 437.125/150
ITAMSAT 1 07 Jul 03:41:43 03:46:54 63° 101° (E) 03:52:05 435.822/435.867
Gurwin Techsat 1B 07 Jul 03:50:05 03:55:26 78° 103° (ESE) 04:00:46 435.225
MOZHAYETS 4 07 Jul 03:57:51 04:01:44 28° 66° (ENE) 04:05:42
STARS 07 Jul 04:08:02 04:12:16 45° 261° (W) 04:16:29 437.465
HORYU 2 07 Jul 04:12:13 04:15:24 19° 91° (E) 04:18:43 437.375
Cosmos 2491 07 Jul 04:18:22 04:26:00 34° 276° (W) 04:33:24 435.465 / 435.565
Cosmos 2504 07 Jul 04:44:39 04:48:42 17° 79° (E) 04:53:06 435.465 / 435.565
AO-7 07 Jul 04:54:04 05:02:04 47° 99° (E) 05:10:03 29.400- 29.500
YUBILEINY 07 Jul 04:54:08 05:02:36 53° 288° (WNW) 05:11:04 435.215
JAS-2 07 Jul 05:01:41 05:08:20 89° 104° (ESE) 05:15:47 435.910
ITAMSAT 1 07 Jul 05:22:03 05:26:01 22° 300° (WNW) 05:29:51 435.822/435.867
Gurwin Techsat 1B 07 Jul 05:31:14 05:34:52 18° 302° (WNW) 05:38:21 435.225
MOZHAYETS 4 07 Jul 05:34:37 05:38:51 36° 264° (W) 05:43:07
RS-15 07 Jul 05:37:28 05:47:47 41° 336° (NNW) 05:58:26 29.354- 29.394
HORYU 2 07 Jul 05:48:01 05:52:21 49° 289° (WNW) 05:56:40 437.375
CUBESAT XI-V 07 Jul 06:07:56 06:12:30 50° 71° (ENE) 06:17:06 437.345
